Location: Budapest
(47.4979°N, 19.0402°E)
Time: 17:47:07
(UTC+01:00)

Vanguard 2 Rocket - Visible Passes

Search period start: 20 January 2018 00:00
Search period end: 30 January 2018 00:00
Orbit: 556 x 3326 km, 32.9° (Epoch: 19 January)

Date Brightness Start Highest point End Pass type
(mag) Time Alt. Az. Time Alt. Az. Time Alt. Az.
20 Jan 10.4 06:20:30 10° S 06:26:03 15° SSE 06:30:25 10° SE visible
21 Jan 10.6 05:21:36 10° S 05:26:17 13° SSE 05:30:13 10° SE visible
22 Jan 10.1 06:31:49 10° SSW 06:40:20 21° SSE 06:46:19 10° ESE visible
23 Jan 10.3 05:31:35 10° SSW 05:40:30 20° SSE 05:47:02 10° ESE visible
24 Jan 10.5 04:31:56 10° S 04:40:29 17° SSE 04:47:08 10° ESE visible
24 Jan 9.8 06:44:14 10° SW 06:54:35 28° S 07:01:21 10° ESE visible
25 Jan 10.7 03:33:26 10° S 03:40:17 14° SSE 03:46:06 10° ESE visible
25 Jan 10.0 05:43:20 10° SW 05:54:43 27° SSE 06:02:23 10° ESE visible
26 Jan 10.2 04:42:45 10° SSW 04:54:36 24° SSE 05:03:01 10° ESE visible
27 Jan 10.4 03:42:47 10° SSW 03:54:17 21° SSE 04:03:05 10° ESE visible
27 Jan 9.8 05:55:54 10° SW 06:08:53 33° S 06:17:13 10° ESE visible
28 Jan 10.6 02:43:50 10° S 02:53:52 17° SSE 03:02:11 10° ESE visible
28 Jan 10.0 04:54:45 10° SW 05:08:41 32° SSE 05:18:05 10° ESE visible
29 Jan 10.8 01:48:36 11° SSE 01:53:25 13° SE 01:59:18 10° ESE visible
29 Jan 10.2 03:54:30 11° SSW 04:08:16 29° SSE 04:18:33 10° ESE visible
29 Jan 9.6 06:09:00 10° WSW 06:22:59 38° S 06:31:46 10° ESE visible
